Location: Bourg-d�Oueil
(42.8588°N, 0.4991°E)
Time: 20:32:41
(UTC+00:00)

Terra - Pass Details

Date: 16 June 2021
Orbit: 701 x 703 km, 98.2° (Epoch: 23 July)

Event Time Altitude Azimuth Distance (km) Brightness Sun altitude
Exits shadow 21:05:52 17° 121° (ESE) 1,747 3.3 -12.7°
Maximum altitude 21:08:49 32° 68° (ENE) 1,201 2.9 -13.1°
Drops below altitude 10° 21:13:02 10° 6° (N) 2,180 5.0 -13.6°
Sets 21:15:28 0° 357° (N) 3,103 6.1 -13.8°
